Wayne, NE

7:39 PM CST on November 12, 2019 (GMT -0600)
Wayne Municipal

Weather History for KLCG - October, 2019

Change the Weather History Date:

Tuesday, October 22, 2019

  Actual Average (KOFK) Record (KOFK)
Temperature  
Mean Temperature 44 °F -  
Max Temperature 55 °F 63 °F 88 °F (1927)
Min Temperature 34 °F 38 °F 14 °F (1936)
Degree Days  
Heating Degree Days 20    
Moisture  
Dew Point 30 °F    
Average Humidity 65    
Maximum Humidity 86    
Minimum Humidity 37    
Precipitation  
Precipitation 0.00 in - - ()
Sea Level Pressure  
Sea Level Pressure 29.85 in    
Wind  
Wind Speed 17 mph ()    
Max Wind Speed 31 mph    
Max Gust Speed 41 mph    
Visibility 10.0 miles    
Events      
Averages and records for this station are not official NWS values.
T = Trace of Precipitation, MM = Missing Value Source: Averaged Metar Reports

Daily Weather History Graph

Daily Weather History Graph

Search for Another Location

Airport or City:

Astronomy

Oct. 22, 2019 Rise Set
Actual Time 7:48 AM CDT 6:35 PM CDT
Civil Twilight 7:20 AM CDT 7:04 PM CDT
Nautical Twilight 6:47 AM CDT 7:36 PM CDT
Astronomical Twilight 6:14 AM CDT 8:09 PM CDT
Moon 12:50 AM CDT (10/22) 3:54 PM CDT (10/22)
Length of Visible Light 11h 43m
Length of Day
10h 46m
Last Quarter, 37% of the Moon is Illuminated
Oct 22
Last Quarter
Oct 27
New
Nov 4
First Quarter
Nov 12
Full
Nov 19
Last Quarter

Hourly Weather History & Observations

Time (CDT) Temp. Windchill Dew Point Humidity Pressure Visibility Wind Dir Wind Speed Gust Speed Precip Events Conditions
12:15 AM 42.4 °F 32.2 °F 35.2 °F 76% 29.74 in 10.0 mi NW 27.6 mph 38.0 mph N/A   Overcast
12:35 AM 42.3 °F 31.4 °F 34.9 °F 75% 29.74 in 10.0 mi NW 31.1 mph 36.8 mph N/A   Overcast
1:15 AM 40.6 °F 30.2 °F 33.3 °F 75% 29.76 in 10.0 mi NW 25.3 mph 41.4 mph N/A   Scattered Clouds
1:35 AM 40.1 °F 30.2 °F 32.9 °F 75% 29.76 in 10.0 mi NW 21.9 mph 33.4 mph N/A   Clear
1:55 AM 39.7 °F 29.7 °F 32.9 °F 77% 29.77 in 10.0 mi WNW 21.9 mph 27.6 mph N/A   Clear
2:15 AM 39.6 °F 29.5 °F 32.5 °F 76% 29.78 in 10.0 mi WNW 21.9 mph 29.9 mph N/A   Clear
2:55 AM 38.3 °F 27.8 °F 31.6 °F 77% 29.78 in 10.0 mi WNW 21.9 mph 29.9 mph N/A   Clear
3:15 AM 37.8 °F 26.8 °F 31.1 °F 77% 29.79 in 10.0 mi WNW 23.0 mph 32.2 mph N/A   Clear
3:35 AM 37.6 °F 26.6 °F 30.6 °F 76% 29.79 in 10.0 mi WNW 23.0 mph 31.1 mph N/A   Clear
3:55 AM 37.4 °F 25.9 °F 30.2 °F 75% 29.79 in 10.0 mi WNW 25.3 mph 34.5 mph N/A   Clear
4:15 AM 37.0 °F 25.9 °F 30.0 °F 76% 29.80 in 10.0 mi WNW 23.0 mph 28.8 mph N/A   Clear
4:35 AM 36.7 °F 26.0 °F 30.0 °F 77% 29.81 in 10.0 mi WNW 20.7 mph 28.8 mph N/A   Clear
4:55 AM 36.9 °F 26.2 °F 29.8 °F 76% 29.81 in 10.0 mi WNW 20.7 mph 28.8 mph N/A   Clear
5:15 AM 36.9 °F 25.9 °F 29.8 °F 76% 29.81 in 10.0 mi WNW 21.9 mph 29.9 mph N/A   Clear
5:35 AM 36.7 °F 26.6 °F 29.7 °F 76% 29.82 in 10.0 mi WNW 18.4 mph 26.5 mph N/A   Clear
5:55 AM 36.9 °F 25.9 °F 29.3 °F 74% 29.83 in 10.0 mi WNW 21.9 mph 26.5 mph N/A   Clear
6:15 AM 36.9 °F 26.5 °F 29.1 °F 74% 29.84 in 10.0 mi WNW 19.6 mph 25.3 mph N/A   Clear
6:35 AM 35.8 °F 25.7 °F 28.9 °F 76% 29.84 in 10.0 mi WNW 17.3 mph 24.2 mph N/A   Clear
6:55 AM 35.6 °F 25.5 °F 28.9 °F 77% 29.85 in 10.0 mi WNW 17.3 mph 23.0 mph N/A   Clear
7:15 AM 35.1 °F 24.8 °F 28.4 °F 77% 29.85 in 10.0 mi WNW 17.3 mph - N/A   Clear
7:35 AM 34.7 °F 25.5 °F 28.4 °F 78% 29.86 in 10.0 mi WNW 13.8 mph - N/A   Clear
7:55 AM 34.9 °F 25.3 °F 28.4 °F 77% 29.86 in 10.0 mi WNW 15.0 mph 21.9 mph N/A   Clear
8:10 AM 35.2 °F 25.0 °F 28.4 °F 76% 29.86 in 10.0 mi WNW 17.3 mph 20.7 mph N/A   Clear
8:35 AM 36.1 °F 25.9 °F 28.4 °F 73% 29.88 in 10.0 mi WNW 18.4 mph 23.0 mph N/A   Clear
8:55 AM 37.4 °F 27.2 °F 29.1 °F 72% 29.88 in 10.0 mi WNW 19.6 mph 24.2 mph N/A   Clear
9:15 AM 38.8 °F 29.7 °F 29.8 °F 70% 29.89 in 10.0 mi WNW 17.3 mph 20.7 mph N/A   Clear
9:35 AM 40.1 °F 31.3 °F 30.2 °F 68% 29.90 in 10.0 mi WNW 17.3 mph 24.2 mph N/A   Clear
9:55 AM 41.0 °F 32.2 °F 30.0 °F 65% 29.91 in 10.0 mi WNW 18.4 mph 27.6 mph N/A   Clear
10:15 AM 41.9 °F 33.1 °F 29.8 °F 62% 29.91 in 10.0 mi WNW 19.6 mph 27.6 mph N/A   Clear
10:35 AM 43.0 °F 33.8 °F 30.2 °F 61% 29.91 in 10.0 mi NW 23.0 mph 27.6 mph N/A   Clear
10:55 AM 43.9 °F 35.7 °F 30.2 °F 59% 29.91 in 10.0 mi WNW 19.6 mph 28.8 mph N/A   Clear
11:15 AM 45.0 °F 36.9 °F 30.2 °F 56% 29.92 in 10.0 mi WNW 20.7 mph 31.1 mph N/A   Clear
11:35 AM 45.9 °F 37.8 °F 30.7 °F 56% 29.92 in 10.0 mi NW 21.9 mph 28.8 mph N/A   Clear
11:55 AM 46.8 °F - 30.4 °F 53% 29.92 in 10.0 mi NW 19.6 mph 26.5 mph N/A   Clear
12:20 PM 48.0 °F - 29.1 °F 48% 29.92 in 10.0 mi NW 17.3 mph 27.6 mph N/A   Clear
12:35 PM 49.1 °F - 29.5 °F 47% 29.92 in 10.0 mi NW 18.4 mph 26.5 mph N/A   Clear
12:55 PM 50.2 °F - 28.6 °F 43% 29.91 in 10.0 mi WNW 19.6 mph 28.8 mph N/A   Scattered Clouds
1:15 PM 50.9 °F - 28.6 °F 42% 29.91 in 10.0 mi WNW 26.5 mph 33.4 mph N/A   Scattered Clouds
1:35 PM 50.9 °F - 28.0 °F 41% 29.90 in 10.0 mi NW 19.6 mph 27.6 mph N/A   Scattered Clouds
1:55 PM 52.2 °F - 29.1 °F 41% 29.89 in 10.0 mi WNW 21.9 mph 25.3 mph N/A   Scattered Clouds
2:15 PM 52.0 °F - 28.4 °F 40% 29.88 in 10.0 mi NW 17.3 mph 26.5 mph N/A   Scattered Clouds
2:35 PM 52.7 °F - 28.9 °F 40% 29.89 in 10.0 mi WNW 21.9 mph 28.8 mph N/A   Mostly Cloudy
2:55 PM 53.2 °F - 28.8 °F 39% 29.88 in 10.0 mi WNW 18.4 mph 28.8 mph N/A   Mostly Cloudy
3:15 PM 53.2 °F - 28.4 °F 38% 29.88 in 10.0 mi WNW 17.3 mph 26.5 mph N/A   Scattered Clouds
3:35 PM 54.1 °F - 28.9 °F 38% 29.87 in 10.0 mi West 16.1 mph 26.5 mph N/A   Clear
3:55 PM 54.9 °F - 29.3 °F 38% 29.86 in 10.0 mi West 19.6 mph - N/A   Scattered Clouds
4:15 PM 55.0 °F - 29.3 °F 37% 29.86 in 10.0 mi West 18.4 mph 28.8 mph N/A   Scattered Clouds
4:35 PM 55.4 °F - 30.4 °F 38% 29.85 in 10.0 mi WNW 15.0 mph 21.9 mph N/A   Scattered Clouds
4:55 PM 54.9 °F - 30.4 °F 39% 29.85 in 10.0 mi WNW 17.3 mph 23.0 mph N/A   Scattered Clouds
5:15 PM 54.5 °F - 30.0 °F 39% 29.85 in 10.0 mi WNW 16.1 mph 21.9 mph N/A   Scattered Clouds
5:35 PM 54.5 °F - 31.3 °F 41% 29.85 in 10.0 mi NW 12.7 mph - N/A   Scattered Clouds
5:55 PM 52.9 °F - 32.0 °F 45% 29.84 in 10.0 mi WNW 8.1 mph - N/A   Scattered Clouds
6:15 PM 51.6 °F - 32.0 °F 47% 29.84 in 10.0 mi West 6.9 mph - N/A   Scattered Clouds
6:35 PM 48.9 °F - 32.0 °F 52% 29.84 in 10.0 mi West 5.8 mph - N/A   Clear
6:55 PM 46.2 °F - 31.1 °F 56% 29.84 in 10.0 mi Calm Calm - N/A   Clear
7:15 PM 39.4 °F - 29.3 °F 67% 29.84 in 10.0 mi Calm Calm - N/A   Clear
7:35 PM 35.6 °F 32.8 °F 29.8 °F 80% 29.84 in 10.0 mi South 3.5 mph - N/A   Clear
7:55 PM 37.8 °F 33.3 °F 30.2 °F 74% 29.85 in 10.0 mi SSW 5.8 mph - N/A   Clear
8:15 PM 36.7 °F 34.1 °F 30.4 °F 78% 29.84 in 10.0 mi SSW 3.5 mph - N/A   Clear
8:35 PM 36.3 °F 33.7 °F 30.9 °F 81% 29.85 in 10.0 mi SW 3.5 mph - N/A   Clear
8:55 PM 36.0 °F 33.3 °F 30.9 °F 82% 29.84 in 10.0 mi SSW 3.5 mph - N/A   Clear
9:15 PM 36.5 °F - 31.8 °F 83% 29.84 in 10.0 mi Calm Calm - N/A   Clear
9:35 PM 36.0 °F - 32.0 °F 86% 29.84 in 10.0 mi Calm Calm - N/A   Clear
9:55 PM 36.1 °F 33.5 °F 31.5 °F 83% 29.84 in 10.0 mi SSW 3.5 mph - N/A   Clear
10:15 PM 35.4 °F - 31.1 °F 84% 29.84 in 10.0 mi Calm Calm - N/A   Clear
10:35 PM 36.0 °F - 30.9 °F 82% 29.84 in 10.0 mi Calm Calm - N/A   Clear
10:55 PM 36.0 °F - 32.0 °F 86% 29.84 in 10.0 mi Calm Calm - N/A   Scattered Clouds
11:15 PM 36.5 °F 32.7 °F 31.6 °F 83% 29.84 in 10.0 mi SW 4.6 mph - N/A   Scattered Clouds
11:35 PM 36.7 °F - 32.9 °F 86% 29.83 in 10.0 mi Calm Calm - N/A   Scattered Clouds
11:55 PM 36.7 °F - 32.5 °F 85% 29.82 in 10.0 mi Calm Calm - N/A   Scattered Clouds